FW8715 Weather Reports


Display with metric or nautical units.
time (UTC)temp
F
wind
direction
speed
MPH
gust
MPH
rain 1hr
in
rain 24hr
in
rain mn
in
humidity
%
barometer
mb
20260510005606 58 75 1.0 1.0 0.00 0.00 0.00 74 1016.2
20260510002606 58 72 0.0 0.0 0.00 0.00 0.00 72 1015.9
20260509235606 58 59 1.0 1.0 0.00 0.00 0.00 73 1016.2
20260509232604 58 54 0.0 0.0 0.00 0.00 0.00 71 1016.2
20260509222605 59 72 0.0 0.0 0.00 0.00 0.00 71 1016.2
20260509215604 59 72 0.0 0.0 0.00 0.00 0.00 71 1016.2
20260509212606 58 48 0.0 0.0 0.00 0.00 0.00 69 1016.2
20260509205605 59 156 0.0 0.0 0.00 0.00 0.00 68 1016.2
20260509202606 60 160 0.0 0.0 0.00 0.00 0.00 66 1015.9
20260509195608 62 162 0.0 0.0 0.00 0.00 0.00 63 1015.5
20260509182606 69 172 2.0 2.0 0.00 0.00 0.00 49 1015.2
20260509175605 70 159 1.0 1.0 0.00 0.00 0.00 47 1015.2
20260509172606 71 204 3.0 3.0 0.00 0.00 0.00 43 1015.2
20260509165604 72 170 4.0 4.0 0.00 0.00 0.00 41 1015.5
20260509155607 74 173 4.0 4.0 0.00 0.00 0.00 38 1015.5
20260509152605 75 167 4.0 4.0 0.00 0.00 0.00 38 1015.5
20260509135606 76 198 4.0 4.0 0.00 0.00 0.00 36 1015.9
20260509132606 75 190 3.0 3.0 0.00 0.00 0.00 37 1016.2
20260509122606 74 134 1.0 1.0 0.00 0.00 0.00 39 1016.5
20260509115606 73 180 2.0 2.0 0.00 0.00 0.00 42 1016.9
20260509112604 72 169 2.0 2.0 0.00 0.00 0.00 42 1017.2
20260509105604 71 173 2.0 2.0 0.00 0.00 0.00 40 1017.9
20260509095607 68 138 2.0 2.0 0.00 0.00 0.00 45 1018.2
20260509082606 64 174 3.0 3.0 0.00 0.00 0.00 54 1019.3
20260509075606 62 180 1.0 1.0 0.00 0.00 0.00 59 1019.3
20260509072606 60 173 1.0 1.0 0.00 0.00 0.00 63 1019.3
20260509065604 58 145 0.0 0.0 0.00 0.00 0.00 68 1019.3
20260509062605 55 162 0.0 0.0 0.00 0.00 0.00 69 1019.3
20260509052605 49 235 0.0 0.0 0.00 0.00 0.00 84 1018.9
20260509045606 50 235 0.0 0.0 0.00 0.00 0.00 82 1018.9
20260509042607 51 240 0.0 0.0 0.00 0.00 0.00 80 1018.9
20260509035604 51 246 0.0 0.0 0.00 0.00 0.00 81 1018.9
20260509032605 52 234 0.0 0.0 0.00 0.00 0.00 81 1019.3
20260509025605 52 236 0.0 0.0 0.00 0.00 0.00 82 1019.3
20260509022606 51 234 0.0 0.0 0.00 0.00 0.00 82 1018.9
20260509015604 52 240 0.0 0.0 0.00 0.00 0.00 80 1018.9
20260509012604 52 244 0.0 0.0 0.00 0.00 0.00 77 1019.3